CCA1762 ZUCK-ZSHC

Flight info

Callsign CCA1762
Flight time 1h 51m
Altitude 35100
Route OLNER7W OLNER B213 WHA R343 UPLEL W95 SAPIN A470 IGRAT IGRAT91
Aircraft B38M/M-SDE1FGHILORVWXY/HB1

Departure

Time 2026-04-27 11:52
Airport Chongqing Jiangbei International Airport (ZUCK)

Arrival

Time 2026-04-27 13:43
Airport Hangzhou Xiaoshan International Airport (ZSHC)
Time Latitude Longitude Altitude Speed Heading
2026-04-27 11:35 29.73101 106.65681 1351 ft 0 kts 109°
2026-04-27 11:46 29.73102 106.65678 1348 ft 2 kts 108°
2026-04-27 11:46 29.73107 106.65659 1351 ft 4 kts 104°
2026-04-27 11:46 29.73112 106.65629 1350 ft 4 kts 94°
2026-04-27 11:47 29.73111 106.65599 1350 ft 4 kts 76°
2026-04-27 11:47 29.73101 106.65576 1354 ft 1 kts 41°
2026-04-27 11:47 29.73100 106.65576 1354 ft 0 kts 41°
2026-04-27 11:49 29.73103 106.65578 1351 ft 3 kts 41°
2026-04-27 11:49 29.73152 106.65615 1352 ft 14 kts 20°
2026-04-27 11:49 29.73279 106.65623 1353 ft 21 kts 338°
2026-04-27 11:49 29.73385 106.65522 1355 ft 18 kts 314°
2026-04-27 11:50 29.73472 106.65438 1356 ft 15 kts 325°
2026-04-27 11:50 29.73514 106.65351 1356 ft 11 kts 288°
2026-04-27 11:50 29.73534 106.65271 1359 ft 10 kts 284°
2026-04-27 11:50 29.73557 106.65169 1357 ft 13 kts 283°
2026-04-27 11:51 29.73546 106.65126 1358 ft 5 kts 211°
2026-04-27 11:51 29.73417 106.65084 1356 ft 51 kts 197°
2026-04-27 11:51 29.71911 106.64561 1360 ft 167 kts 197°
2026-04-27 11:52 29.70710 106.64145 1721 ft 188 kts 197°
2026-04-27 11:52 29.69434 106.63710 2445 ft 192 kts 196°
2026-04-27 11:52 29.68125 106.63259 3073 ft 206 kts 196°
2026-04-27 11:52 29.66680 106.62762 3493 ft 229 kts 196°
2026-04-27 11:53 29.65060 106.62203 3989 ft 247 kts 196°
2026-04-27 11:53 29.63417 106.61636 4859 ft 258 kts 196°
2026-04-27 11:53 29.61645 106.61022 5513 ft 273 kts 199°
2026-04-27 11:53 29.60016 106.59945 6473 ft 272 kts 224°
2026-04-27 11:54 29.58951 106.58149 7281 ft 277 kts 250°
2026-04-27 11:54 29.58659 106.55968 8137 ft 281 kts 274°
2026-04-27 11:54 29.59081 106.53770 8987 ft 285 kts 285°
2026-04-27 11:54 29.59627 106.51562 9822 ft 289 kts 285°
2026-04-27 11:55 29.60195 106.49316 10461 ft 299 kts 286°
2026-04-27 11:55 29.60801 106.46958 10949 ft 310 kts 286°
2026-04-27 11:55 29.61411 106.44609 11959 ft 306 kts 286°
2026-04-27 11:55 29.62021 106.42271 12652 ft 313 kts 286°
2026-04-27 11:56 29.62650 106.39866 13428 ft 316 kts 286°
2026-04-27 11:56 29.63288 106.37427 14129 ft 320 kts 286°
2026-04-27 11:56 29.63931 106.34968 14856 ft 322 kts 286°
2026-04-27 11:56 29.64576 106.32496 15628 ft 323 kts 286°
2026-04-27 11:57 29.65266 106.30028 16323 ft 327 kts 292°
2026-04-27 11:57 29.66520 106.27841 16999 ft 332 kts 313°
2026-04-27 11:57 29.68413 106.26302 17653 ft 339 kts 334°
2026-04-27 11:57 29.70675 106.25609 18256 ft 347 kts 353°
2026-04-27 11:58 29.73099 106.25837 18787 ft 355 kts 13°
2026-04-27 11:58 29.75490 106.26617 19298 ft 360 kts 13°
2026-04-27 11:58 29.77912 106.27406 19812 ft 364 kts 13°
2026-04-27 11:58 29.80354 106.28220 20348 ft 367 kts 14°
2026-04-27 11:59 29.82817 106.29051 20848 ft 371 kts 14°
2026-04-27 11:59 29.85300 106.29903 21350 ft 374 kts 14°
2026-04-27 11:59 29.87807 106.30767 21840 ft 378 kts 14°
2026-04-27 11:59 29.90304 106.31628 22327 ft 381 kts 14°
2026-04-27 12:00 29.92851 106.32538 22788 ft 386 kts 18°
2026-04-27 12:00 29.95206 106.34063 23263 ft 393 kts 38°
2026-04-27 12:00 29.97062 106.36400 23641 ft 400 kts 57°
2026-04-27 12:00 29.98201 106.39328 24042 ft 402 kts 76°
2026-04-27 12:01 29.98796 106.42488 24422 ft 405 kts 78°
2026-04-27 12:01 29.99395 106.45673 24823 ft 407 kts 78°
2026-04-27 12:01 29.99982 106.48881 25215 ft 410 kts 78°
2026-04-27 12:01 30.00554 106.52063 25597 ft 412 kts 79°
2026-04-27 12:02 30.01135 106.55314 25986 ft 415 kts 79°
2026-04-27 12:02 30.01717 106.58580 26381 ft 417 kts 79°
2026-04-27 12:02 30.02301 106.61868 26750 ft 419 kts 79°
2026-04-27 12:02 30.02887 106.65174 27121 ft 422 kts 78°
2026-04-27 12:03 30.03476 106.68500 27494 ft 424 kts 79°
2026-04-27 12:03 30.04067 106.71842 27841 ft 426 kts 79°
2026-04-27 12:03 30.04660 106.75202 28230 ft 428 kts 79°
2026-04-27 12:03 30.05246 106.78526 28581 ft 430 kts 79°
2026-04-27 12:04 30.05843 106.81918 28923 ft 432 kts 79°
2026-04-27 12:04 30.06442 106.85329 29259 ft 434 kts 79°
2026-04-27 12:04 30.07043 106.88757 29589 ft 437 kts 79°
2026-04-27 12:04 30.07646 106.92204 29918 ft 439 kts 79°
2026-04-27 12:05 30.08251 106.95668 30195 ft 441 kts 79°
2026-04-27 12:05 30.08859 106.99152 30445 ft 444 kts 79°
2026-04-27 12:05 30.09469 107.02655 30693 ft 446 kts 79°
2026-04-27 12:05 30.10080 107.06173 30963 ft 448 kts 79°
2026-04-27 12:06 30.10686 107.09665 31208 ft 450 kts 79°
2026-04-27 12:06 30.11055 107.13254 31424 ft 451 kts 93°
2026-04-27 12:06 30.10572 107.16815 31690 ft 449 kts 108°
2026-04-27 12:06 30.09686 107.20283 31860 ft 453 kts 108°
2026-04-27 12:07 30.08794 107.23782 32089 ft 455 kts 108°
2026-04-27 12:07 30.07879 107.27284 32334 ft 457 kts 109°
2026-04-27 12:07 30.06947 107.30797 32554 ft 459 kts 109°
2026-04-27 12:07 30.06005 107.34325 32789 ft 461 kts 109°
2026-04-27 12:08 30.05057 107.37865 33010 ft 463 kts 109°
2026-04-27 12:08 30.04115 107.41378 33224 ft 465 kts 109°
2026-04-27 12:08 30.03156 107.44950 33435 ft 467 kts 109°
2026-04-27 12:08 30.02192 107.48537 33655 ft 469 kts 109°
2026-04-27 12:09 30.01222 107.52142 33861 ft 471 kts 109°
2026-04-27 12:09 30.00247 107.55759 34033 ft 473 kts 109°
2026-04-27 12:09 29.99266 107.59397 34203 ft 476 kts 109°
2026-04-27 12:09 29.98280 107.63046 34387 ft 478 kts 109°
2026-04-27 12:10 29.97289 107.66711 34558 ft 480 kts 109°
2026-04-27 12:10 29.96308 107.70337 34721 ft 481 kts 109°
2026-04-27 12:10 29.95306 107.74030 34864 ft 483 kts 109°
2026-04-27 12:10 29.94314 107.77743 34989 ft 486 kts 106°
2026-04-27 12:11 29.93771 107.81605 34980 ft 491 kts 90°
2026-04-27 12:11 29.94110 107.85518 34995 ft 493 kts 75°
2026-04-27 12:11 29.95019 107.89341 35006 ft 497 kts 73°
2026-04-27 12:12 29.96907 107.97078 35009 ft 505 kts 72°
2026-04-27 12:12 29.98861 108.04857 35015 ft 510 kts 72°
2026-04-27 12:13 30.00837 108.12719 35021 ft 510 kts 72°
2026-04-27 12:13 30.02808 108.20581 35018 ft 510 kts 72°
2026-04-27 12:14 30.04774 108.28444 35019 ft 510 kts 72°
2026-04-27 12:14 30.06724 108.36257 35020 ft 510 kts 72°
2026-04-27 12:15 30.08681 108.44122 35029 ft 510 kts 72°
2026-04-27 12:15 30.10631 108.51986 35030 ft 509 kts 72°
2026-04-27 12:16 30.12783 108.59760 35040 ft 508 kts 69°
2026-04-27 12:16 30.15041 108.67505 35029 ft 508 kts 70°
2026-04-27 12:17 30.17264 108.75205 35024 ft 509 kts 70°
2026-04-27 12:17 30.19500 108.82967 35038 ft 509 kts 70°
2026-04-27 12:18 30.21729 108.90729 35043 ft 508 kts 70°
2026-04-27 12:18 30.23693 108.98595 35050 ft 510 kts 72°
2026-04-27 12:19 30.25636 109.06419 35060 ft 510 kts 72°
2026-04-27 12:19 30.27593 109.14297 35047 ft 509 kts 72°
2026-04-27 12:20 30.29543 109.22172 35055 ft 509 kts 72°
2026-04-27 12:20 30.31469 109.30056 35057 ft 509 kts 72°
2026-04-27 12:21 30.33379 109.37883 35091 ft 510 kts 72°
2026-04-27 12:21 30.35306 109.45802 35045 ft 510 kts 72°
2026-04-27 12:22 30.37210 109.53686 35067 ft 508 kts 72°
2026-04-27 12:22 30.39008 109.61547 35056 ft 509 kts 79°
2026-04-27 12:23 30.40226 109.69618 35049 ft 509 kts 79°
2026-04-27 12:23 30.41418 109.77708 35068 ft 510 kts 79°
2026-04-27 12:24 30.42604 109.85795 35056 ft 508 kts 79°
2026-04-27 12:24 30.43781 109.93864 35076 ft 508 kts 79°
2026-04-27 12:25 30.44944 110.01876 35079 ft 508 kts 79°
2026-04-27 12:25 30.46111 110.09954 35082 ft 508 kts 79°
2026-04-27 12:26 30.47275 110.18035 35085 ft 508 kts 79°
2026-04-27 12:26 30.48434 110.26127 35101 ft 509 kts 79°
2026-04-27 12:27 30.49581 110.34168 35085 ft 509 kts 79°
2026-04-27 12:27 30.50731 110.42265 35094 ft 509 kts 79°
2026-04-27 12:28 30.51875 110.50366 35098 ft 508 kts 80°
2026-04-27 12:28 30.53012 110.58449 35115 ft 508 kts 80°
2026-04-27 12:29 30.54144 110.66538 35101 ft 508 kts 80°
2026-04-27 12:29 30.55263 110.74570 35098 ft 508 kts 80°
2026-04-27 12:30 30.56386 110.82663 35094 ft 508 kts 80°
2026-04-27 12:30 30.57503 110.90752 35079 ft 508 kts 80°
2026-04-27 12:31 30.58615 110.98840 35081 ft 508 kts 80°
2026-04-27 12:31 30.59721 111.06933 35086 ft 509 kts 80°
2026-04-27 12:32 30.60820 111.14995 35079 ft 509 kts 80°
2026-04-27 12:32 30.61921 111.23113 35076 ft 509 kts 80°
2026-04-27 12:33 30.63013 111.31235 35066 ft 509 kts 80°
2026-04-27 12:33 30.64102 111.39357 35076 ft 509 kts 80°
2026-04-27 12:34 30.65147 111.47429 35065 ft 509 kts 84°
2026-04-27 12:34 30.65631 111.55637 35073 ft 510 kts 86°
2026-04-27 12:35 30.66058 111.63848 35080 ft 509 kts 86°
2026-04-27 12:35 30.66480 111.72062 35078 ft 509 kts 86°
2026-04-27 12:36 30.66895 111.80221 35895 ft 509 kts 86°
2026-04-27 12:36 30.67304 111.88383 35653 ft 505 kts 87°
2026-04-27 12:36 30.67507 111.92453 35406 ft 505 kts 87°
2026-04-27 12:37 30.67738 111.96530 35171 ft 506 kts 85°
2026-04-27 12:37 30.68306 112.04615 35105 ft 497 kts 85°
2026-04-27 12:38 30.68844 112.12502 35101 ft 489 kts 85°
2026-04-27 12:38 30.69372 112.20323 35099 ft 482 kts 85°
2026-04-27 12:39 30.69887 112.28035 35099 ft 476 kts 86°
2026-04-27 12:39 30.70392 112.35652 35100 ft 470 kts 86°
2026-04-27 12:40 30.70883 112.43135 35099 ft 465 kts 86°
2026-04-27 12:40 30.71369 112.50594 35102 ft 461 kts 86°
2026-04-27 12:41 30.71846 112.57986 35099 ft 457 kts 86°
2026-04-27 12:41 30.72315 112.65314 35098 ft 453 kts 86°
2026-04-27 12:42 30.72773 112.72540 35103 ft 450 kts 86°
2026-04-27 12:42 30.73227 112.79763 35096 ft 447 kts 86°
2026-04-27 12:43 30.73674 112.86941 35096 ft 444 kts 86°
2026-04-27 12:43 30.74115 112.94084 35096 ft 442 kts 86°
2026-04-27 12:44 30.74546 113.01137 35097 ft 439 kts 86°
2026-04-27 12:44 30.74977 113.08229 35111 ft 443 kts 86°
2026-04-27 12:44 30.75195 113.11829 35009 ft 451 kts 85°
2026-04-27 12:45 30.75334 113.15491 34989 ft 456 kts 88°
2026-04-27 12:45 30.75417 113.19176 35092 ft 456 kts 88°
2026-04-27 12:45 30.75513 113.22863 35198 ft 456 kts 88°
2026-04-27 12:45 30.75611 113.26550 35315 ft 459 kts 88°
2026-04-27 12:46 30.75710 113.30299 35112 ft 469 kts 88°
2026-04-27 12:46 30.75908 113.37922 35104 ft 479 kts 88°
2026-04-27 12:47 30.76107 113.45745 35103 ft 489 kts 88°
2026-04-27 12:47 30.76306 113.53720 35096 ft 498 kts 88°
2026-04-27 12:48 30.76503 113.61837 35101 ft 507 kts 88°
2026-04-27 12:48 30.76696 113.70026 35098 ft 511 kts 88°
2026-04-27 12:49 30.76887 113.78289 35099 ft 511 kts 88°
2026-04-27 12:49 30.77072 113.86557 35100 ft 511 kts 88°
2026-04-27 12:50 30.77251 113.94821 35099 ft 511 kts 88°
2026-04-27 12:50 30.77482 114.03027 35101 ft 511 kts 87°
2026-04-27 12:51 30.77813 114.11285 35100 ft 511 kts 87°
2026-04-27 12:51 30.78266 114.19530 35080 ft 510 kts 77°
2026-04-27 12:51 30.79302 114.23441 35118 ft 505 kts 66°
2026-04-27 12:52 30.80538 114.27287 35073 ft 508 kts 68°
2026-04-27 12:52 30.82971 114.34948 35102 ft 508 kts 67°
2026-04-27 12:53 30.86702 114.46485 35101 ft 508 kts 67°
2026-04-27 12:53 30.89204 114.54180 35101 ft 508 kts 67°
2026-04-27 12:54 30.91698 114.61874 35100 ft 508 kts 67°
2026-04-27 12:54 30.94164 114.69493 35148 ft 502 kts 69°
2026-04-27 12:55 30.96599 114.77044 35101 ft 494 kts 69°
2026-04-27 12:55 30.98992 114.84478 35101 ft 486 kts 70°
2026-04-27 12:56 31.01347 114.91806 35102 ft 479 kts 69°
2026-04-27 12:56 31.03653 114.99003 35068 ft 476 kts 67°
2026-04-27 12:57 31.05981 115.06282 35102 ft 487 kts 66°
2026-04-27 12:57 31.08380 115.13799 35099 ft 502 kts 66°
2026-04-27 12:58 31.10846 115.21555 35027 ft 520 kts 62°
2026-04-27 12:58 31.13411 115.29566 35053 ft 532 kts 62°
2026-04-27 12:59 31.16030 115.37646 35139 ft 541 kts 62°
2026-04-27 12:59 31.18722 115.45986 35120 ft 555 kts 62°
2026-04-27 13:00 31.21479 115.54547 35108 ft 571 kts 62°
2026-04-27 13:00 31.24309 115.63353 35100 ft 587 kts 63°
2026-04-27 13:01 31.27193 115.72357 35066 ft 602 kts 63°
2026-04-27 13:01 31.30141 115.81579 35088 ft 607 kts 63°
2026-04-27 13:02 31.33114 115.90781 35074 ft 602 kts 62°
2026-04-27 13:02 31.36105 115.99938 35104 ft 603 kts 62°
2026-04-27 13:03 31.39063 116.09036 35100 ft 603 kts 63°
2026-04-27 13:03 31.42035 116.18204 35106 ft 601 kts 63°
2026-04-27 13:04 31.44993 116.27357 35101 ft 601 kts 63°
2026-04-27 13:04 31.47943 116.36508 35098 ft 600 kts 63°
2026-04-27 13:05 31.50887 116.45665 35104 ft 601 kts 63°
2026-04-27 13:05 31.53804 116.54767 35100 ft 600 kts 63°
2026-04-27 13:06 31.56736 116.63937 35100 ft 600 kts 63°
2026-04-27 13:06 31.59638 116.73036 35059 ft 600 kts 69°
2026-04-27 13:07 31.62548 116.82200 35100 ft 608 kts 69°
2026-04-27 13:07 31.65512 116.91551 35100 ft 613 kts 69°
2026-04-27 13:08 31.68466 117.00931 35098 ft 613 kts 70°
2026-04-27 13:08 31.71378 117.10335 35099 ft 613 kts 70°
2026-04-27 13:09 31.74288 117.19739 35101 ft 612 kts 70°
2026-04-27 13:09 31.76995 117.29146 35075 ft 611 kts 81°
2026-04-27 13:10 31.77376 117.34042 35085 ft 598 kts 95°
2026-04-27 13:10 31.76871 117.38891 35116 ft 599 kts 99°
2026-04-27 13:10 31.76215 117.48727 35146 ft 608 kts 95°
2026-04-27 13:11 31.75536 117.58678 35095 ft 612 kts 95°
2026-04-27 13:11 31.74839 117.68584 35102 ft 612 kts 96°
2026-04-27 13:12 31.74129 117.78549 35101 ft 612 kts 96°
2026-04-27 13:12 31.73415 117.88470 34547 ft 605 kts 96°
2026-04-27 13:13 31.73057 117.93403 33840 ft 606 kts 96°
2026-04-27 13:13 31.72699 117.98309 33334 ft 600 kts 96°
2026-04-27 13:13 31.72344 118.03162 32805 ft 593 kts 96°
2026-04-27 13:13 31.71992 118.07951 32200 ft 586 kts 95°
2026-04-27 13:14 31.71668 118.12631 31607 ft 579 kts 95°
2026-04-27 13:14 31.71345 118.17320 30977 ft 573 kts 95°
2026-04-27 13:14 31.71022 118.21962 30317 ft 569 kts 95°
2026-04-27 13:14 31.70698 118.26582 29535 ft 567 kts 95°
2026-04-27 13:15 31.70373 118.31200 28683 ft 568 kts 95°
2026-04-27 13:15 31.70048 118.35798 27907 ft 563 kts 95°
2026-04-27 13:15 31.69723 118.40356 27149 ft 558 kts 95°
2026-04-27 13:15 31.69399 118.44892 26266 ft 557 kts 95°
2026-04-27 13:16 31.69074 118.49414 25335 ft 556 kts 95°
2026-04-27 13:16 31.68749 118.53915 24490 ft 550 kts 95°
2026-04-27 13:16 31.68431 118.58300 23769 ft 543 kts 95°
2026-04-27 13:16 31.68111 118.62694 23078 ft 537 kts 95°
2026-04-27 13:17 31.67793 118.67028 22418 ft 530 kts 95°
2026-04-27 13:17 31.67478 118.71305 21791 ft 523 kts 95°
2026-04-27 13:17 31.67166 118.75533 21161 ft 516 kts 95°
2026-04-27 13:17 31.66855 118.79715 20500 ft 512 kts 96°
2026-04-27 13:18 31.66547 118.83856 19827 ft 508 kts 95°
2026-04-27 13:18 31.66239 118.87966 19168 ft 503 kts 95°
2026-04-27 13:18 31.65897 118.92032 18511 ft 498 kts 100°
2026-04-27 13:18 31.64962 118.95852 17912 ft 491 kts 114°
2026-04-27 13:19 31.63319 118.99310 17322 ft 481 kts 129°
2026-04-27 13:19 31.61088 119.02166 16715 ft 473 kts 142°
2026-04-27 13:19 31.58542 119.04684 15861 ft 486 kts 143°
2026-04-27 13:19 31.55846 119.07169 15052 ft 499 kts 140°
2026-04-27 13:20 31.53059 119.09676 14207 ft 511 kts 141°
2026-04-27 13:20 31.50189 119.12224 13283 ft 523 kts 141°
2026-04-27 13:20 31.47247 119.14807 12304 ft 534 kts 142°
2026-04-27 13:20 31.44282 119.17399 11798 ft 525 kts 142°
2026-04-27 13:21 31.41480 119.19845 11870 ft 492 kts 143°
2026-04-27 13:21 31.38829 119.22158 11878 ft 460 kts 143°
2026-04-27 13:21 31.36343 119.24327 11879 ft 433 kts 143°
2026-04-27 13:21 31.33996 119.26372 11893 ft 410 kts 143°
2026-04-27 13:22 31.31752 119.28327 11600 ft 397 kts 143°
2026-04-27 13:22 31.29563 119.30233 11248 ft 387 kts 143°
2026-04-27 13:22 31.27428 119.32090 10926 ft 378 kts 143°
2026-04-27 13:22 31.25348 119.33898 10641 ft 368 kts 143°
2026-04-27 13:23 31.23348 119.35637 10388 ft 358 kts 143°
2026-04-27 13:23 31.21376 119.37350 10154 ft 348 kts 144°
2026-04-27 13:23 31.19461 119.39017 9959 ft 338 kts 143°
2026-04-27 13:23 31.17619 119.40630 9935 ft 323 kts 143°
2026-04-27 13:24 31.15861 119.42168 9925 ft 309 kts 143°
2026-04-27 13:24 31.14182 119.43636 9916 ft 295 kts 143°
2026-04-27 13:24 31.12566 119.45048 9907 ft 287 kts 143°
2026-04-27 13:24 31.10968 119.46443 9875 ft 287 kts 143°
2026-04-27 13:25 31.09393 119.47818 9859 ft 286 kts 143°
2026-04-27 13:25 31.07801 119.49208 9853 ft 286 kts 143°
2026-04-27 13:25 31.06205 119.50600 9852 ft 286 kts 143°
2026-04-27 13:25 31.04611 119.51990 9851 ft 286 kts 143°
2026-04-27 13:26 31.03014 119.53383 9850 ft 286 kts 143°
2026-04-27 13:26 31.01418 119.54772 9850 ft 286 kts 143°
2026-04-27 13:26 30.99824 119.56161 9851 ft 286 kts 143°
2026-04-27 13:26 30.98227 119.57551 9850 ft 286 kts 143°
2026-04-27 13:27 30.96651 119.58922 9850 ft 286 kts 143°
2026-04-27 13:27 30.95056 119.60309 9849 ft 286 kts 144°
2026-04-27 13:27 30.93461 119.61695 9849 ft 286 kts 143°
2026-04-27 13:27 30.91866 119.63081 9850 ft 286 kts 144°
2026-04-27 13:28 30.90271 119.64467 9850 ft 286 kts 144°
2026-04-27 13:28 30.88675 119.65852 9850 ft 286 kts 144°
2026-04-27 13:28 30.87078 119.67238 9851 ft 286 kts 144°
2026-04-27 13:28 30.85481 119.68624 9850 ft 286 kts 144°
2026-04-27 13:29 30.83888 119.70006 9821 ft 284 kts 144°
2026-04-27 13:29 30.82327 119.71358 9462 ft 284 kts 144°
2026-04-27 13:29 30.80748 119.72727 9149 ft 282 kts 144°
2026-04-27 13:29 30.79176 119.74088 8830 ft 281 kts 144°
2026-04-27 13:30 30.77612 119.75442 8510 ft 279 kts 144°
2026-04-27 13:30 30.76058 119.76786 8199 ft 278 kts 144°
2026-04-27 13:30 30.74512 119.78124 7884 ft 276 kts 144°
2026-04-27 13:30 30.72974 119.79454 7575 ft 275 kts 144°
2026-04-27 13:31 30.71452 119.80789 7264 ft 273 kts 142°
2026-04-27 13:31 30.69981 119.82133 6981 ft 271 kts 142°
2026-04-27 13:31 30.68503 119.83478 6893 ft 270 kts 142°
2026-04-27 13:31 30.67019 119.84828 6889 ft 270 kts 142°
2026-04-27 13:32 30.65533 119.86173 6774 ft 277 kts 144°
2026-04-27 13:32 30.64002 119.87519 6988 ft 282 kts 147°
2026-04-27 13:32 30.62246 119.88649 6841 ft 295 kts 156°
2026-04-27 13:32 30.60380 119.89773 6816 ft 308 kts 155°
2026-04-27 13:33 30.58467 119.90962 6868 ft 315 kts 154°
2026-04-27 13:33 30.56533 119.92189 6859 ft 319 kts 154°
2026-04-27 13:33 30.54576 119.93433 6859 ft 333 kts 155°
2026-04-27 13:33 30.52523 119.94747 6865 ft 340 kts 155°
2026-04-27 13:34 30.50441 119.96086 6878 ft 344 kts 155°
2026-04-27 13:34 30.48341 119.97434 6857 ft 350 kts 157°
2026-04-27 13:34 30.46157 119.98836 6827 ft 367 kts 158°
2026-04-27 13:34 30.43871 120.00302 6845 ft 383 kts 157°
2026-04-27 13:35 30.41515 120.01792 6844 ft 391 kts 159°
2026-04-27 13:35 30.39088 120.03322 6853 ft 402 kts 159°
2026-04-27 13:35 30.36614 120.04890 6873 ft 407 kts 159°
2026-04-27 13:35 30.34118 120.06467 6580 ft 414 kts 159°
2026-04-27 13:36 30.31559 120.08082 5659 ft 436 kts 158°
2026-04-27 13:36 30.28850 120.09794 5146 ft 442 kts 158°
2026-04-27 13:36 30.26108 120.11122 5400 ft 408 kts 182°
2026-04-27 13:36 30.23504 120.11500 5910 ft 354 kts 175°
2026-04-27 13:37 30.21216 120.12177 6172 ft 328 kts 161°
2026-04-27 13:37 30.19126 120.12982 5969 ft 307 kts 163°
2026-04-27 13:37 30.17132 120.13675 5649 ft 292 kts 164°
2026-04-27 13:37 30.15221 120.14315 5323 ft 280 kts 161°
2026-04-27 13:38 30.13598 120.15431 5045 ft 267 kts 136°
2026-04-27 13:38 30.12562 120.17162 4644 ft 261 kts 111°
2026-04-27 13:38 30.12294 120.19117 4292 ft 242 kts 84°
2026-04-27 13:38 30.12795 120.20890 3982 ft 228 kts 60°
2026-04-27 13:39 30.13560 120.22402 3791 ft 209 kts 60°
2026-04-27 13:39 30.14242 120.23831 3487 ft 198 kts 62°
2026-04-27 13:39 30.14878 120.25224 3207 ft 195 kts 63°
2026-04-27 13:39 30.15501 120.26613 2935 ft 194 kts 63°
2026-04-27 13:40 30.16117 120.27995 2667 ft 193 kts 63°
2026-04-27 13:40 30.16717 120.29345 2404 ft 184 kts 63°
2026-04-27 13:40 30.17282 120.30618 2170 ft 171 kts 63°
2026-04-27 13:40 30.17785 120.31756 2000 ft 153 kts 63°
2026-04-27 13:41 30.18269 120.32848 1789 ft 152 kts 63°
2026-04-27 13:41 30.18748 120.33930 1570 ft 151 kts 63°
2026-04-27 13:41 30.19225 120.35009 1359 ft 150 kts 63°
2026-04-27 13:41 30.19701 120.36084 1156 ft 150 kts 63°
2026-04-27 13:42 30.20175 120.37153 971 ft 149 kts 63°
2026-04-27 13:42 30.20648 120.38221 789 ft 149 kts 63°
2026-04-27 13:42 30.21116 120.39289 587 ft 149 kts 64°
2026-04-27 13:42 30.21580 120.40335 357 ft 148 kts 63°
2026-04-27 13:43 30.22049 120.41390 160 ft 147 kts 63°
2026-04-27 13:43 30.22509 120.42424 37 ft 135 kts 62°
2026-04-27 13:43 30.22840 120.43186 36 ft 72 kts 64°
2026-04-27 13:43 30.23003 120.43550 37 ft 40 kts 56°
2026-04-27 13:44 30.23169 120.43729 36 ft 28 kts 34°
2026-04-27 13:44 30.23337 120.43778 34 ft 21 kts 335°
2026-04-27 13:44 30.23473 120.43702 34 ft 23 kts 333°
2026-04-27 13:44 30.23620 120.43615 34 ft 22 kts 333°
2026-04-27 13:45 30.23734 120.43546 34 ft 20 kts 332°
2026-04-27 13:45 30.23806 120.43502 34 ft 13 kts 332°
2026-04-27 13:45 30.23832 120.43481 34 ft 1 kts 324°
2026-04-27 13:45 30.23842 120.43472 34 ft 3 kts 320°
2026-04-27 13:46 30.23867 120.43451 34 ft 5 kts 328°
2026-04-27 13:46 30.23889 120.43437 34 ft 4 kts 331°
2026-04-27 13:46 30.23905 120.43427 34 ft 1 kts 332°
2026-04-27 13:46 30.23908 120.43425 34 ft 0 kts 332°